Back to catalog

STARLINK-37467

AliveCommunicationsSSO
NORAD 68855·PAYLOAD·🇺🇸 United States

Launched Apr 26, 2026 from Vandenberg Space Force Base

Loading…

Next Passes (next 24 hours)

TLE

FreshSource: CelesTrak SupGP

Epoch: Sep 14, 2026, 20:57 UTC

1 68855C 26094S   26257.87340278  .00021337  00000+0  66236-3 0  2572
2 68855  97.2836 271.1077 0001615  83.2011  45.0510 15.33428099    12

Track STARLINK-37467 in real time with AllMySat

Download on the App Store